N67322 KSMO-KUDD

Flight info

Callsign N67322
Flight time N/A
Altitude 11000
Route SMO V107 STABO V264 ITSME V186 PDZ V16 SETER T306 PSP
Aircraft SR20/L-VGD/C

Departure

Time 2026-05-04 03:20
Airport Santa Monica Municipal Airport (KSMO)

Arrival

Time N/A
Airport Bermuda Dunes Airport (KUDD)
Time Latitude Longitude Altitude Speed Heading
2026-05-04 02:59 34.01350 -118.45325 129 ft 0 kts 228°
2026-05-04 03:14 34.01353 -118.45333 129 ft 3 kts 290°
2026-05-04 03:14 34.01356 -118.45373 128 ft 6 kts 102°
2026-05-04 03:15 34.01315 -118.45335 127 ft 13 kts 50°
2026-05-04 03:15 34.01396 -118.45230 130 ft 19 kts 32°
2026-05-04 03:15 34.01541 -118.45070 136 ft 36 kts 45°
2026-05-04 03:15 34.01755 -118.44821 150 ft 47 kts 44°
2026-05-04 03:16 34.01854 -118.44701 158 ft 0 kts 50°
2026-05-04 03:16 34.01891 -118.44685 159 ft 0 kts 330°
2026-05-04 03:19 34.01906 -118.44707 159 ft 7 kts 305°
2026-05-04 03:19 34.01847 -118.44834 155 ft 49 kts 220°
2026-05-04 03:19 34.01449 -118.45276 241 ft 91 kts 225°
2026-05-04 03:19 34.01046 -118.45917 581 ft 93 kts 237°
2026-05-04 03:20 34.00721 -118.46450 1038 ft 77 kts 227°
2026-05-04 03:20 34.00339 -118.46970 1307 ft 85 kts 226°
2026-05-04 03:20 33.99884 -118.47373 1683 ft 78 kts 217°
2026-05-04 03:20 33.99459 -118.47873 1891 ft 92 kts 226°
2026-05-04 03:21 33.99127 -118.48593 2037 ft 109 kts 266°
2026-05-04 03:21 33.98909 -118.49447 2275 ft 108 kts 234°
2026-05-04 03:21 33.98470 -118.50181 2538 ft 108 kts 232°
2026-05-04 03:21 33.98265 -118.51043 2772 ft 112 kts 275°
2026-05-04 03:22 33.98537 -118.51977 2920 ft 126 kts 290°
2026-05-04 03:22 33.98895 -118.52946 3171 ft 129 kts 292°
2026-05-04 03:22 33.99266 -118.53941 3425 ft 131 kts 291°
2026-05-04 03:22 33.99817 -118.54806 3685 ft 134 kts 327°
2026-05-04 03:23 34.00811 -118.55024 3591 ft 162 kts 10°
2026-05-04 03:23 34.01812 -118.54267 3317 ft 186 kts 54°
2026-05-04 03:23 34.02149 -118.52740 2907 ft 203 kts 98°
2026-05-04 03:23 34.01712 -118.51090 2697 ft 203 kts 108°
2026-05-04 03:24 34.01414 -118.49530 2951 ft 185 kts 102°
2026-05-04 03:24 34.01227 -118.47992 2977 ft 185 kts 99°
2026-05-04 03:24 34.01085 -118.46426 2982 ft 185 kts 97°
2026-05-04 03:24 34.01091 -118.44861 2980 ft 186 kts 88°
2026-05-04 03:25 34.00985 -118.43304 2982 ft 185 kts 96°
2026-05-04 03:25 34.00872 -118.41736 2979 ft 186 kts 97°
2026-05-04 03:25 34.00790 -118.40207 3145 ft 178 kts 96°
2026-05-04 03:25 34.00716 -118.38738 3336 ft 171 kts 94°
2026-05-04 03:26 34.00653 -118.37320 3548 ft 166 kts 95°
2026-05-04 03:26 34.00592 -118.35931 3746 ft 163 kts 95°
2026-05-04 03:26 34.00531 -118.34575 3941 ft 161 kts 95°
2026-05-04 03:26 34.00454 -118.33237 4132 ft 158 kts 95°
2026-05-04 03:27 34.00403 -118.31919 4326 ft 157 kts 95°
2026-05-04 03:27 34.00350 -118.30590 4529 ft 156 kts 95°
2026-05-04 03:27 34.00293 -118.29297 4724 ft 155 kts 95°
2026-05-04 03:27 34.00399 -118.28022 4914 ft 155 kts 71°
2026-05-04 03:28 34.00864 -118.26846 5119 ft 154 kts 63°
2026-05-04 03:28 34.01376 -118.25713 5314 ft 154 kts 62°
2026-05-04 03:28 34.01899 -118.24574 5515 ft 153 kts 62°
2026-05-04 03:28 34.02414 -118.23452 5713 ft 152 kts 62°
2026-05-04 03:29 34.02925 -118.22340 5909 ft 151 kts 62°
2026-05-04 03:29 34.03454 -118.21189 5985 ft 159 kts 63°
2026-05-04 03:29 34.04009 -118.19978 5990 ft 169 kts 63°
2026-05-04 03:29 34.04583 -118.18724 5987 ft 175 kts 62°
2026-05-04 03:30 34.05199 -118.17382 5993 ft 179 kts 62°
2026-05-04 03:30 34.05798 -118.16080 6080 ft 177 kts 62°
2026-05-04 03:30 34.06402 -118.14758 6085 ft 181 kts 63°
2026-05-04 03:30 34.07010 -118.13431 6243 ft 174 kts 63°
2026-05-04 03:31 34.07281 -118.12058 6477 ft 163 kts 88°
2026-05-04 03:31 34.07328 -118.10721 6715 ft 156 kts 90°
2026-05-04 03:31 34.07352 -118.09428 6941 ft 152 kts 90°
2026-05-04 03:31 34.07371 -118.08130 6993 ft 159 kts 90°
2026-05-04 03:32 34.07395 -118.06754 6998 ft 168 kts 90°
2026-05-04 03:32 34.07418 -118.05306 6996 ft 173 kts 90°
2026-05-04 03:32 34.07442 -118.03841 6994 ft 177 kts 91°
2026-05-04 03:32 34.07468 -118.02333 6992 ft 180 kts 91°
2026-05-04 03:33 34.07477 -118.00817 6990 ft 181 kts 97°
2026-05-04 03:33 34.07128 -117.99351 6994 ft 180 kts 112°
2026-05-04 03:33 34.06673 -117.97958 6991 ft 180 kts 113°
2026-05-04 03:33 34.06204 -117.96534 6991 ft 181 kts 114°
2026-05-04 03:34 34.05738 -117.95118 6990 ft 181 kts 113°
2026-05-04 03:34 34.05278 -117.93716 6990 ft 181 kts 113°
2026-05-04 03:34 34.04811 -117.92297 6991 ft 181 kts 113°
2026-05-04 03:34 34.04347 -117.90887 6990 ft 182 kts 113°
2026-05-04 03:35 34.03880 -117.89462 6991 ft 182 kts 113°
2026-05-04 03:35 34.03413 -117.88037 6990 ft 182 kts 114°
2026-05-04 03:35 34.02945 -117.86623 6991 ft 182 kts 114°
2026-05-04 03:35 34.02476 -117.85197 6991 ft 182 kts 114°
2026-05-04 03:36 34.02007 -117.83780 6990 ft 182 kts 114°
2026-05-04 03:36 34.01540 -117.82366 6991 ft 182 kts 113°
2026-05-04 03:36 34.01071 -117.80949 6991 ft 182 kts 113°
2026-05-04 03:36 34.00603 -117.79527 6991 ft 182 kts 113°
2026-05-04 03:37 34.00135 -117.78112 6991 ft 182 kts 113°
2026-05-04 03:37 33.99670 -117.76700 6991 ft 182 kts 113°
2026-05-04 03:37 33.99200 -117.75275 6991 ft 182 kts 113°
2026-05-04 03:37 33.98730 -117.73859 6991 ft 182 kts 113°
2026-05-04 03:38 33.98275 -117.72473 7186 ft 171 kts 113°
2026-05-04 03:38 33.97847 -117.71174 7421 ft 162 kts 114°
2026-05-04 03:38 33.97445 -117.69955 7654 ft 154 kts 113°
2026-05-04 03:38 33.97054 -117.68774 7891 ft 148 kts 114°
2026-05-04 03:39 33.96679 -117.67638 8130 ft 143 kts 114°
2026-05-04 03:39 33.96315 -117.66541 8370 ft 138 kts 114°
2026-05-04 03:39 33.95965 -117.65479 8572 ft 136 kts 115°
2026-05-04 03:39 33.95616 -117.64442 8813 ft 132 kts 114°
2026-05-04 03:40 33.95277 -117.63412 8980 ft 134 kts 114°
2026-05-04 03:40 33.94915 -117.62325 9002 ft 146 kts 114°
2026-05-04 03:40 33.94525 -117.61152 9002 ft 156 kts 114°
2026-05-04 03:40 33.94111 -117.59906 8998 ft 163 kts 114°
2026-05-04 03:41 33.93686 -117.58625 8996 ft 169 kts 114°
2026-05-04 03:41 33.93233 -117.57258 8994 ft 172 kts 114°
2026-05-04 03:41 33.92779 -117.55892 9020 ft 173 kts 114°
2026-05-04 03:41 33.92351 -117.54597 9231 ft 163 kts 114°
2026-05-04 03:42 33.91944 -117.53352 9440 ft 156 kts 110°
2026-05-04 03:42 33.91795 -117.52080 9651 ft 151 kts 96°
2026-05-04 03:42 33.91742 -117.50841 9862 ft 146 kts 95°
2026-05-04 03:42 33.91693 -117.49633 10077 ft 141 kts 95°
2026-05-04 03:43 33.91647 -117.48468 10291 ft 137 kts 95°
2026-05-04 03:43 33.91603 -117.47348 10503 ft 133 kts 95°
2026-05-04 03:43 33.91560 -117.46246 10717 ft 129 kts 95°
2026-05-04 03:43 33.91520 -117.45209 10973 ft 121 kts 95°
2026-05-04 03:44 33.91474 -117.44120 10984 ft 135 kts 95°
2026-05-04 03:44 33.91424 -117.42957 11003 ft 145 kts 95°
2026-05-04 03:44 33.91373 -117.41689 11001 ft 155 kts 95°
2026-05-04 03:44 33.91319 -117.40361 10998 ft 162 kts 95°
2026-05-04 03:45 33.91263 -117.38982 10996 ft 167 kts 95°
2026-05-04 03:45 33.91203 -117.37551 10994 ft 171 kts 95°
2026-05-04 03:45 33.91145 -117.36116 10993 ft 174 kts 95°
2026-05-04 03:45 33.91086 -117.34650 10992 ft 176 kts 95°
2026-05-04 03:46 33.91025 -117.33180 10991 ft 177 kts 95°
2026-05-04 03:46 33.90962 -117.31656 10991 ft 178 kts 95°
2026-05-04 03:46 33.90901 -117.30168 10990 ft 179 kts 95°
2026-05-04 03:46 33.90839 -117.28661 10991 ft 179 kts 95°
2026-05-04 03:47 33.90777 -117.27161 10990 ft 180 kts 95°
2026-05-04 03:47 33.90715 -117.25670 10990 ft 180 kts 95°
2026-05-04 03:47 33.90652 -117.24163 10990 ft 180 kts 95°
2026-05-04 03:47 33.90589 -117.22664 10990 ft 180 kts 95°
2026-05-04 03:48 33.90526 -117.21155 10990 ft 180 kts 95°
2026-05-04 03:48 33.90463 -117.19636 10990 ft 180 kts 95°
2026-05-04 03:48 33.90400 -117.18154 11085 ft 174 kts 95°
2026-05-04 03:48 33.90339 -117.16697 11158 ft 172 kts 95°
2026-05-04 03:49 33.90278 -117.15243 11164 ft 174 kts 95°
2026-05-04 03:49 33.90214 -117.13769 11165 ft 176 kts 95°
2026-05-04 03:49 33.90151 -117.12288 11165 ft 177 kts 95°
2026-05-04 03:49 33.90026 -117.10820 11158 ft 177 kts 110°
2026-05-04 03:50 33.89485 -117.09469 11169 ft 175 kts 120°
2026-05-04 03:50 33.88901 -117.08192 11167 ft 176 kts 121°
2026-05-04 03:50 33.88300 -117.06885 11166 ft 177 kts 121°
2026-05-04 03:50 33.87698 -117.05576 11165 ft 177 kts 121°
2026-05-04 03:51 33.87103 -117.04286 11165 ft 177 kts 121°
2026-05-04 03:51 33.86509 -117.02991 11165 ft 177 kts 121°
2026-05-04 03:51 33.85905 -117.01684 11166 ft 177 kts 121°
2026-05-04 03:51 33.85309 -117.00387 11165 ft 178 kts 121°
2026-05-04 03:52 33.84712 -116.99089 11165 ft 178 kts 121°
2026-05-04 03:52 33.84115 -116.97787 11165 ft 178 kts 121°
2026-05-04 03:52 33.83516 -116.96487 11165 ft 178 kts 121°
2026-05-04 03:52 33.82916 -116.95177 11165 ft 178 kts 121°
2026-05-04 03:53 33.82320 -116.93881 11165 ft 178 kts 121°
2026-05-04 03:53 33.81719 -116.92570 11165 ft 178 kts 121°
2026-05-04 03:53 33.81113 -116.91258 11165 ft 178 kts 121°
2026-05-04 03:53 33.80515 -116.89948 11165 ft 178 kts 121°
2026-05-04 03:54 33.79913 -116.88641 11165 ft 178 kts 121°
2026-05-04 03:54 33.79321 -116.87350 11165 ft 178 kts 121°
2026-05-04 03:54 33.78717 -116.86037 11165 ft 178 kts 121°
2026-05-04 03:54 33.78113 -116.84723 11165 ft 178 kts 121°
2026-05-04 03:55 33.77514 -116.83415 11165 ft 178 kts 121°
2026-05-04 03:55 33.76915 -116.82105 11164 ft 178 kts 121°
2026-05-04 03:55 33.76308 -116.80793 11164 ft 178 kts 121°
2026-05-04 03:55 33.75710 -116.79487 11164 ft 179 kts 121°
2026-05-04 03:56 33.75113 -116.78188 11164 ft 179 kts 121°
2026-05-04 03:56 33.74511 -116.76879 11164 ft 179 kts 121°
2026-05-04 03:56 33.73935 -116.75550 11157 ft 180 kts 111°
2026-05-04 03:56 33.73682 -116.74076 11166 ft 181 kts 101°
2026-05-04 03:57 33.73461 -116.72577 11164 ft 181 kts 102°
2026-05-04 03:57 33.73227 -116.71095 11164 ft 181 kts 103°
2026-05-04 03:57 33.72987 -116.69626 11164 ft 181 kts 103°
2026-05-04 03:57 33.72705 -116.68145 11163 ft 181 kts 104°
2026-05-04 03:58 33.72277 -116.65161 11165 ft 181 kts 101°
2026-05-04 03:58 33.72033 -116.63665 11165 ft 181 kts 103°
2026-05-04 03:58 33.71781 -116.62193 11165 ft 181 kts 103°
2026-05-04 03:59 33.71531 -116.60712 11165 ft 181 kts 103°
2026-05-04 03:59 33.71279 -116.59217 11165 ft 181 kts 103°
2026-05-04 03:59 33.71032 -116.57740 11102 ft 185 kts 103°
2026-05-04 03:59 33.70768 -116.56175 10884 ft 195 kts 103°
2026-05-04 04:00 33.70492 -116.54558 10669 ft 201 kts 103°
2026-05-04 04:00 33.70212 -116.52893 10450 ft 205 kts 103°
2026-05-04 04:00 33.69927 -116.51205 10229 ft 207 kts 103°
2026-05-04 04:00 33.69677 -116.49493 10005 ft 209 kts 100°
2026-05-04 04:01 33.69470 -116.47768 9784 ft 210 kts 101°
2026-05-04 04:01 33.69178 -116.46052 9562 ft 210 kts 103°
2026-05-04 04:01 33.68875 -116.44331 9338 ft 210 kts 103°
2026-05-04 04:01 33.68572 -116.42621 9177 ft 208 kts 103°
2026-05-04 04:02 33.68277 -116.40950 9132 ft 201 kts 103°
2026-05-04 04:02 33.67989 -116.39314 9062 ft 198 kts 103°
2026-05-04 04:02 33.67711 -116.37727 9062 ft 193 kts 103°
2026-05-04 04:02 33.67438 -116.36169 9063 ft 189 kts 103°
2026-05-04 04:03 33.67166 -116.34617 9064 ft 187 kts 104°
2026-05-04 04:03 33.66897 -116.33079 8861 ft 196 kts 104°
2026-05-04 04:03 33.66608 -116.31447 8542 ft 200 kts 104°
2026-05-04 04:03 33.66322 -116.29819 8148 ft 202 kts 104°
2026-05-04 04:04 33.66040 -116.28216 7588 ft 191 kts 104°
2026-05-04 04:04 33.65779 -116.26707 7037 ft 184 kts 104°
2026-05-04 04:04 33.65524 -116.25234 6480 ft 178 kts 104°
2026-05-04 04:04 33.65278 -116.23805 5926 ft 174 kts 104°
2026-05-04 04:05 33.65038 -116.22420 5378 ft 170 kts 104°
2026-05-04 04:05 33.64800 -116.21036 4828 ft 168 kts 104°
2026-05-04 04:05 33.64559 -116.19637 4303 ft 180 kts 103°
2026-05-04 04:05 33.64310 -116.18198 4168 ft 170 kts 103°
2026-05-04 04:06 33.64086 -116.16874 4154 ft 154 kts 103°
2026-05-04 04:06 33.63881 -116.15662 4153 ft 141 kts 103°
2026-05-04 04:06 33.63696 -116.14552 4153 ft 131 kts 103°
2026-05-04 04:06 33.63517 -116.13490 4164 ft 132 kts 103°
2026-05-04 04:07 33.63330 -116.12381 4085 ft 141 kts 104°
2026-05-04 04:07 33.63135 -116.11220 4125 ft 139 kts 102°
2026-05-04 04:07 33.62950 -116.10073 4125 ft 140 kts 103°
2026-05-04 04:07 33.62532 -116.09032 4007 ft 145 kts 126°
2026-05-04 04:08 33.61944 -116.07981 3845 ft 154 kts 127°
2026-05-04 04:08 33.61330 -116.06909 3697 ft 160 kts 126°
2026-05-04 04:08 33.60692 -116.05783 3530 ft 165 kts 125°
2026-05-04 04:08 33.60040 -116.04636 3370 ft 167 kts 126°
2026-05-04 04:09 33.59376 -116.03472 3197 ft 169 kts 127°
2026-05-04 04:09 33.58646 -116.02357 3017 ft 169 kts 144°
2026-05-04 04:09 33.57539 -116.02067 2843 ft 168 kts 191°
2026-05-04 04:09 33.56601 -116.02837 2670 ft 169 kts 237°
2026-05-04 04:10 33.56420 -116.04210 2511 ft 173 kts 282°
2026-05-04 04:10 33.57133 -116.05360 2344 ft 176 kts 326°
2026-05-04 04:10 33.58231 -116.06027 2179 ft 177 kts 334°
2026-05-04 04:10 33.59340 -116.06622 2130 ft 170 kts 335°
2026-05-04 04:11 33.60376 -116.07174 2284 ft 154 kts 334°
2026-05-04 04:11 33.61277 -116.07835 2336 ft 149 kts 320°
2026-05-04 04:11 33.62020 -116.08702 2344 ft 148 kts 312°
2026-05-04 04:11 33.62720 -116.09621 2346 ft 148 kts 310°
2026-05-04 04:12 33.63397 -116.10548 2344 ft 149 kts 309°
2026-05-04 04:12 33.64060 -116.11477 2446 ft 142 kts 309°
2026-05-04 04:12 33.64702 -116.12385 2464 ft 143 kts 308°
2026-05-04 04:12 33.65344 -116.13295 2467 ft 145 kts 309°
2026-05-04 04:13 33.66000 -116.14224 2466 ft 146 kts 308°
2026-05-04 04:13 33.66661 -116.15160 2466 ft 147 kts 308°
2026-05-04 04:13 33.67324 -116.16103 2466 ft 148 kts 308°
2026-05-04 04:13 33.67990 -116.17055 2466 ft 148 kts 308°
2026-05-04 04:14 33.68660 -116.18012 2377 ft 155 kts 308°
2026-05-04 04:14 33.69364 -116.19016 2122 ft 154 kts 309°
2026-05-04 04:14 33.70015 -116.19946 1871 ft 135 kts 309°
2026-05-04 04:14 33.70582 -116.20752 1653 ft 117 kts 308°
2026-05-04 04:15 33.71044 -116.21413 1537 ft 99 kts 307°
2026-05-04 04:15 33.71502 -116.22066 1386 ft 105 kts 308°
2026-05-04 04:15 33.71985 -116.22755 1214 ft 109 kts 308°
2026-05-04 04:15 33.72478 -116.23456 1038 ft 111 kts 308°
2026-05-04 04:16 33.72953 -116.24133 878 ft 98 kts 307°
2026-05-04 04:16 33.73375 -116.24722 697 ft 90 kts 310°
2026-05-04 04:16 33.73808 -116.25237 468 ft 87 kts 310°
2026-05-04 04:16 33.74152 -116.25775 302 ft 78 kts 299°
2026-05-04 04:17 33.74419 -116.26402 152 ft 80 kts 289°
2026-05-04 04:17 33.74620 -116.26934 56 ft 57 kts 294°